This demonstration page uses our WeatherBlox Daily Observations layout. Learn more.

Left ArrowRight Arrow

Hourly Observations for May 31, 2017

Temp ( °F °C ) Dew Point ( °F °C ) Humidity (%) Winds ( mph kmh ) Pressure ( in mb ) Visibility ( mi km ) Precip ( " mm )
12:15 am 00:15 Clear 58 14.6 39 4 49 49 ENE 7 11 30.03 1017 10 16 N/A
12:35 am 00:35 Clear 56 13.6 39 4.1 53 53 NE 8 13 30.03 1017 10 16 N/A
12:55 am 00:55 Clear 57 13.9 39 3.9 51 51 ENE 6 9 30.03 1017 10 16 N/A
1:35 am 01:35 Partly Cloudy 56 13.6 39 4 53 53 E 6 9 30.06 1018 10 16 N/A
1:55 am 01:55 Cloudy 56 13.2 40 4.6 56 56 E 6 9 30.09 1019 10 16 N/A
2:15 am 02:15 Mostly Cloudy 57 13.7 40 4.4 54 54 E 6 9 30.03 1017 10 16 N/A
2:35 am 02:35 Mostly Cloudy 55 12.5 41 5 61 61 ENE 5 7 30.06 1018 10 16 N/A
2:55 am 02:55 Partly Cloudy 56 13.4 40 4.5 55 55 NE 6 9 30.03 1017 10 16 N/A
3:15 am 03:15 Partly Cloudy 54 12.1 41 4.8 61 61 NE 6 9 30.06 1018 10 16 N/A
3:35 am 03:35 Partly Cloudy 54 12 41 5 63 63 NE 6 9 30.06 1018 10 16 N/A
3:55 am 03:55 Partly Cloudy 53 11.5 42 5.4 66 66 NE 6 9 30.06 1018 10 16 N/A
4:15 am 04:15 Partly Cloudy 54 12.2 42 5.6 64 64 NE 6 9 30.06 1018 10 16 N/A
4:35 am 04:35 Clear 55 12.5 42 5.5 63 63 ENE 6 9 30.06 1018 10 16 N/A
4:55 am 04:55 Partly Cloudy 53 11.8 41 5.1 64 64 NE 8 13 30.06 1018 10 16 N/A
5:15 am 05:15 Partly Cloudy 53 11.6 41 5.2 65 65 ENE 5 7 30.06 1018 10 16 N/A
5:35 am 05:35 Mostly Cloudy 53 11.9 42 5.5 65 65 NE 8 13 30.06 1018 10 16 N/A
5:55 am 05:55 Partly Cloudy 54 12 42 5.5 65 65 NE 8 13 30.09 1019 10 16 N/A
6:15 am 06:15 Partly Cloudy 54 12.2 42 5.5 64 64 NE 8 13 30.09 1019 10 16 N/A
6:35 am 06:35 Mostly Cloudy 55 12.8 42 5.6 62 62 ENE 8 13 30.09 1019 10 16 N/A
6:55 am 06:55 Partly Cloudy 56 13.2 42 5.4 59 59 NE 12 19 30.09 1019 10 16 N/A
7:15 am 07:15 Sunny 57 14 40 4.6 53 53 ESE 14 22 30.06 1018 10 16 N/A
7:35 am 07:35 Partly Cloudy 59 15 40 4.2 49 49 ESE 12 19 30.06 1018 10 16 N/A
7:55 am 07:55 Partly Cloudy 61 16 39 4.1 45 45 E 12 19 30.06 1018 10 16 N/A
8:15 am 08:15 Sunny 62 16.6 38 3.6 42 42 ESE 16 26 30.06 1018 10 16 N/A
8:35 am 08:35 Partly Cloudy 64 17.8 40 4.4 41 41 ESE 13 20 30.03 1017 10 16 N/A
8:55 am 08:55 Partly Cloudy 65 18.6 39 3.8 38 38 ESE 17 28 30.03 1017 10 16 N/A
9:15 am 09:15 Partly Cloudy 66 19.1 39 4.1 37 37 ESE 13 20 30.03 1017 10 16 N/A
9:35 am 09:35 Sunny 67 19.2 42 5.3 40 40 E 15 24 30.03 1017 10 16 N/A
9:55 am 09:55 Sunny with Nearby Thunderstorms 67 19.6 42 5.8 41 41 E 13 20 30.03 1017 10 16 N/A
10:15 am 10:15 Partly Cloudy with Nearby Thunderstorms 69 20.4 44 6.4 40 40 E 15 24 30.00 1016 10 16 N/A
10:35 am 10:35 Partly Cloudy with Nearby Thunderstorms 67 19.6 43 6.2 42 42 ESE 10 17 30.03 1017 10 16 N/A
10:55 am 10:55 Mostly Cloudy with Light Rain 66 18.9 45 7.2 47 47 ENE 10 17 30.03 1017 10 16 N/A
11:15 am 11:15 Mostly Cloudy 67 19.5 43 6.3 42 42 ENE 13 20 30.03 1017 10 16 N/A
11:35 am 11:35 Cloudy with Nearby Thunderstorms 67 19.3 44 6.8 44 44 ENE 12 19 30.03 1017 10 16 N/A
11:55 am 11:55 Cloudy 65 18.6 45 7 47 47 ENE 10 17 30.03 1017 10 16 N/A
12:15 pm 12:15 Mostly Cloudy with Nearby Thunderstorms 68 19.9 46 7.9 46 46 E 16 26 30.03 1017 10 16 N/A
12:35 pm 12:35 Mostly Cloudy 70 20.9 44 6.8 40 40 E 18 30 30.00 1016 10 16 N/A
12:55 pm 12:55 Partly Cloudy 72 22.3 43 6.3 36 36 E 15 24 30.00 1016 10 16 N/A
1:15 pm 13:15 Mostly Cloudy with Thunderstorms 66 18.7 46 7.9 50 50 NE 15 24 30.06 1018 10 16 N/A
1:35 pm 13:35 Cloudy with Light Rain 61 16.2 50 9.9 66 66 E 14 22 30.06 1018 10 16 0.05 1.27
1:55 pm 13:55 Partly Cloudy 67 19.6 55 12.7 65 65 E 15 24 30.03 1017 10 16 0.05 1.27
2:15 pm 14:15 Sunny 70 21.2 49 9.6 48 48 E 16 26 30.00 1016 10 16 N/A
2:35 pm 14:35 Sunny 72 22 47 8.3 42 42 ESE 15 24 30.00 1016 10 16 N/A
2:55 pm 14:55 Sunny 73 22.5 47 8.2 40 40 E 15 24 30.00 1016 10 16 N/A
3:15 pm 15:15 Sunny 71 21.8 45 7 39 39 ESE 15 24 30.00 1016 10 16 N/A
3:35 pm 15:35 Sunny 73 22.8 45 7.3 37 37 ESE 17 28 29.97 1015 10 16 N/A
3:55 pm 15:55 Sunny 74 23.2 45 7 35 35 E 15 24 29.97 1015 10 16 N/A
4:15 pm 16:15 Sunny 74 23.1 44 6.7 35 35 E 16 26 29.97 1015 10 16 N/A
4:35 pm 16:35 Partly Cloudy 74 23.2 44 6.9 35 35 E 17 28 29.97 1015 10 16 N/A
4:55 pm 16:55 Sunny 74 23.2 43 6 33 33 E 18 30 29.97 1015 10 16 N/A
5:15 pm 17:15 Sunny 74 23.5 43 6 32 32 E 18 30 29.91 1013 10 16 N/A
5:35 pm 17:35 Sunny 74 23.5 43 6.1 33 33 E 17 28 29.91 1013 10 16 N/A
5:55 pm 17:55 Sunny 74 23.3 43 6.3 33 33 E 18 30 29.94 1014 10 16 N/A
6:15 pm 18:15 Sunny 74 23.4 42 5.4 31 31 ESE 17 28 29.91 1013 10 16 N/A
6:35 pm 18:35 Sunny 73 23 42 5.6 32 32 E 17 28 29.94 1014 10 16 N/A
7:15 pm 19:15 Sunny 72 22.2 44 6.6 37 37 E 17 28 29.94 1014 10 16 N/A
7:35 pm 19:35 Sunny 72 22 44 6.8 38 38 E 20 31 29.94 1014 10 16 N/A
7:55 pm 19:55 Sunny 70 21 45 7.3 41 41 E 16 26 29.94 1014 10 16 N/A
8:15 pm 20:15 Sunny 69 20.8 46 7.8 43 43 E 14 22 29.94 1014 10 16 N/A
8:35 pm 20:35 Sunny 69 20.4 46 7.5 43 43 E 15 24 29.94 1014 10 16 N/A
8:55 pm 20:55 Sunny 68 19.8 45 7.3 44 44 E 15 24 29.94 1014 10 16 N/A
9:15 pm 21:15 Clear 67 19.2 46 7.6 47 47 E 14 22 29.94 1014 10 16 N/A
9:35 pm 21:35 Clear 66 19.1 46 7.6 47 47 ESE 14 22 29.94 1014 10 16 N/A
9:55 pm 21:55 Partly Cloudy 67 19.2 45 7.3 46 46 ESE 14 22 29.97 1015 10 16 N/A
10:15 pm 22:15 Partly Cloudy 66 19 46 7.8 48 48 ESE 13 20 29.97 1015 10 16 N/A
10:35 pm 22:35 Clear 65 18.4 47 8.2 52 52 ESE 10 17 30.00 1016 10 16 N/A
10:55 pm 22:55 Partly Cloudy 64 17.8 47 8.5 55 55 E 7 11 30.00 1016 10 16 N/A
11:15 pm 23:15 Partly Cloudy 64 17.5 47 8.5 56 56 E 8 13 30.00 1016 10 16 N/A
11:35 pm 23:35 Clear 64 17.5 48 8.8 57 57 E 8 13 30.00 1016 10 16 N/A
11:55 pm 23:55 Clear 63 17 48 9 59 59 ESE 8 13 30.00 1016 10 16 N/A

Powered by AerisWeather